CZ-6A DEB, 54272

Orbit data source: Space-Track

CZ-6A DEB, 54272 is space debris in SSO originally from a launch on Fri, 11 Nov 2022 UTC launched from the Taiyaun Space Center, China (TSC). Debris objects in space refer to the collection of defunct objects orbiting the Earth. Examples of debris include non-operational satellites, rocket bodies, and fragments generated from explosions, collisions, or faulty payload assembly.

Loading next visibility...
Identifier
54272, 2022-151P
Orbit
SSO
Country
Flag of CNCN / PRC
Related business
Manufacturer
SAST
Mission
Spacecraft
Bus & Motor
Unknown
Mass
Unknown
Launch date (UTC)
2022-11-11 (3 years ago)
Launch vehicle
Unknown
Launch site
Taiyaun Space Center, China (TSC)
Object type
Payload
Rocket body
Debris
Shape & HBR
Unknown shape, 0.2 m
Radar Cross Section
Small (<0.1 m²)

Expand to show TLE details & history
Last TLE update: 20 hours ago

TLE from 20 hours ago
0 CZ-6A DEB
1 54272U 22151P   25350.04916527  .00001037  00000-0  48820-3 0  9996
2 54272  98.8615  18.6789 0028115 348.5829  11.4707 14.21969736160133
Epoch: 2025-12-16T01:10Z
TLE epoch observation values (Epoch: 2025-12-16T01:10:47.879Z)
Latitude
-0.00002°
Longitude
-83.95955°
Altitude
801.78 km
Speed
7.463 km/s
True Right ascension
01h 14m 42s
True Declination
0° 00' 00"
Sunlit
Object was in daylight at epoch
Visualization orbit readout
Latitude
Unknown
Longitude
Unknown
Altitude
Unknown
Speed
Unknown
Apparent Right ascension
Unknown
Apparent Declination
Unknown
Sunlit
N/A
Visualization observer readout
Local Sidereal Time
19:43:01
Azimuth
Unknown
Elevation
Unknown
Doppler factor
Unknown
Orbital elements
Apogee altitude
836.088 km
Perigee altitude
795.636 km
Semi-major axis
7,193.999 km
Eccentricity
0.00281
Inclination
98.8615°
RAAN
18.6789°
Arg. of periapsis
348.5829°
True anomaly
11.53499°
Mean anomaly
11.4707°
Eccentric anomaly
11.50282°
Mean motion
3.55703 °/min
Orbital period
101.21 mins
BSTAR
0.0004882
Loading maneuver chart data...
Computing Atmospheric mass density...
Loading historical data...
Loading historical data...
Loading historical data...
Loading historical data...
Loading historical data...
Loading historical data...
Loading historical data...

Documentation

Showing up to 5 results
|